View from above orbital plane
|
View from above satellite
|
Ground track
|
The orbit data is extracted from the following two-line orbital elements,
1 12U 59001B 22175.63970315 .00000121 00000-0 68040-4 0 9995
2 12 32.9033 291.2235 1665117 352.4367 5.3749 11.44680348607028
Epoch (UTC): | 24 June 2022 15:21:10 |
Eccentricity: | 0.1665117 |
inclination: | 32.9033° |
perigee height: | 553 km |
apogee height: | 3323 km |
right ascension of ascending node: | 291.2235° |
argument of perigee: | 352.4367° |
revolutions per day: | 11.44680348 |
mean anomaly at epoch: | 5.3749° |
orbit number at epoch: | 60702 |
The dashed part of the orbit path shows where the satellite is in the earth's shadow,
|
|